Location: Domont
(49.0278°N, 2.3264°E)
Time: 01:16:33
(UTC+00:00)

UWE-3 - Visible Passes

Search period start: 30 June 2022 00:00
Search period end: 10 July 2022 00:00
Orbit: 581 x 679 km, 97.7° (Epoch: 29 June)

Date Brightness Start Highest point End Pass type
(mag) Time Alt. Az. Time Alt. Az. Time Alt. Az.
30 Jun ? 01:55:08 10° ENE 01:56:26 11° E 01:57:44 10° ESE visible
01 Jul ? 02:14:14 10° NE 02:17:12 18° E 02:20:12 10° SE visible
02 Jul ? 02:34:09 10° NE 02:37:54 27° E 02:41:41 10° SSE visible
03 Jul ? 02:54:22 10° NNE 02:58:32 43° E 03:02:46 10° S visible
05 Jul ? 02:00:35 10° ENE 02:02:47 13° E 02:04:59 10° ESE visible
06 Jul ? 02:20:09 10° NE 02:23:31 21° E 02:26:54 10° SE visible
07 Jul ? 02:40:12 10° NNE 02:44:11 32° E 02:48:13 10° SSE visible
08 Jul ? 03:00:28 10° NNE 03:04:47 50° E 03:09:11 10° S visible
